When you browse on this site, cookies collect data to enhance your experience and personalize the content and advertising you see.
Visit our Privacy Policy to learn more. By continuing to use the site, you agree to this use of cookies and data.
  • In Czech Republic
  • List of Countries
  • For 7 days
  • Water Temperature
  • Satellite Maps
  • Weather Map
  • Weather Widgets
  • user-avatar
    Login

    Hourly Weather Edmonton

    Today, 26 April, Friday

    Time Temperature Precipitation Wind Pressure Humidity
    00:00 +4°C° 0 mm 2 mps 705 mmHg 36%
    01:00 +4°C° 0 mm 2 mps 705 mmHg 36%
    02:00 +4°C° 0.1 mm 2 mps 705 mmHg 41%
    03:00 +4°C° 0.1 mm 2 mps 706 mmHg 46%
    04:00 +3°C° 0.1 mm 2 mps 706 mmHg 51%
    05:00 +4°C° 0.1 mm 2 mps 706 mmHg 51%
    06:00 +6°C° 0.1 mm 1 mps 705 mmHg 51%
    07:00 +6°C° 0.1 mm 1 mps 705 mmHg 51%
    08:00 +7°C° 0 mm 1 mps 705 mmHg 46%
    09:00 +8°C° 0 mm 1 mps 705 mmHg 40%
    10:00 +9°C° 0 mm 1 mps 705 mmHg 35%
    11:00 +9°C° 0 mm 1 mps 704 mmHg 32%
    12:00 +10°C° 0 mm 1 mps 704 mmHg 30%
    13:00 +11°C° 0 mm 1 mps 703 mmHg 28%
    14:00 +10°C° 0 mm 2 mps 703 mmHg 28%
    15:00 +10°C° 0 mm 2 mps 702 mmHg 27%
    16:00 +10°C° 0 mm 2 mps 702 mmHg 27%
    17:00 +9°C° 0 mm 2 mps 702 mmHg 29%
    18:00 +8°C° 0 mm 3 mps 702 mmHg 32%
    19:00 +7°C° 0 mm 3 mps 701 mmHg 34%
    20:00 +5°C° 0 mm 3 mps 701 mmHg 34%
    21:00 +5°C° 0 mm 4 mps 701 mmHg 33%
    22:00 +5°C° 0 mm 4 mps 701 mmHg 33%
    23:00 +5°C° 0.1 mm 5 mps 701 mmHg 36%

    Tomorrow, 27 April, Saturday

    Time Temperature Precipitation Wind Pressure Humidity
    00:00 +3°C° 0.1 mm 5 mps 700 mmHg 40%
    01:00 +3°C° 0.1 mm 5 mps 700 mmHg 43%
    02:00 +2°C° 0.7 mm 5 mps 700 mmHg 49%
    03:00 +2°C° 0.7 mm 5 mps 700 mmHg 55%
    04:00 +1°C° 0.7 mm 5 mps 700 mmHg 61%
    05:00 -1°C° 0.5 mm 7 mps 700 mmHg 68%
    06:00 -2°C° 0.5 mm 8 mps 700 mmHg 75%
    07:00 -4°C° 0.5 mm 9 mps 700 mmHg 82%
    08:00 -3°C° 0.4 mm 9 mps 700 mmHg 79%
    09:00 -3°C° 0.4 mm 9 mps 701 mmHg 76%
    10:00 -2°C° 0.4 mm 10 mps 701 mmHg 73%
    11:00 -2°C° 0.2 mm 10 mps 702 mmHg 67%
    12:00 0°C° 0.2 mm 10 mps 702 mmHg 62%
    13:00 +1°C° 0.2 mm 9 mps 703 mmHg 56%
    14:00 +1°C° 0 mm 9 mps 703 mmHg 52%
    15:00 +1°C° 0 mm 8 mps 704 mmHg 49%
    16:00 +1°C° 0 mm 8 mps 705 mmHg 45%
    17:00 0°C° 0 mm 7 mps 705 mmHg 46%
    18:00 +1°C° 0 mm 6 mps 706 mmHg 47%
    19:00 0°C° 0 mm 5 mps 707 mmHg 48%
    20:00 -1°C° 0 mm 5 mps 707 mmHg 49%
    21:00 -1°C° 0 mm 5 mps 708 mmHg 49%
    22:00 -2°C° 0 mm 5 mps 709 mmHg 50%
    23:00 -3°C° 0 mm 4 mps 709 mmHg 51%

    Day after tomorrow, 28 April, Sunday

    Time Temperature Precipitation Wind Pressure Humidity
    00:00 -3°C° 0 mm 4 mps 709 mmHg 52%
    01:00 -4°C° 0 mm 3 mps 710 mmHg 54%
    02:00 -5°C° 0 mm 3 mps 710 mmHg 55%
    03:00 -5°C° 0 mm 3 mps 710 mmHg 57%
    04:00 -5°C° 0 mm 3 mps 710 mmHg 58%
    05:00 -3°C° 0 mm 2 mps 711 mmHg 54%
    06:00 -2°C° 0 mm 2 mps 711 mmHg 49%
    07:00 -1°C° 0 mm 2 mps 711 mmHg 45%
    08:00 +1°C° 0 mm 2 mps 711 mmHg 41%
    09:00 +2°C° 0 mm 2 mps 711 mmHg 36%
    10:00 +5°C° 0 mm 1 mps 711 mmHg 32%
    11:00 +4°C° 0 mm 2 mps 711 mmHg 34%
    12:00 +5°C° 0 mm 2 mps 710 mmHg 36%
    13:00 +4°C° 0 mm 3 mps 710 mmHg 38%
    14:00 +4°C° 0.2 mm 3 mps 710 mmHg 43%
    15:00 +4°C° 0.2 mm 3 mps 709 mmHg 48%
    16:00 +4°C° 0.2 mm 3 mps 709 mmHg 53%
    17:00 +3°C° 0.3 mm 3 mps 709 mmHg 60%
    18:00 +3°C° 0.3 mm 2 mps 709 mmHg 67%
    19:00 +3°C° 0.3 mm 1 mps 709 mmHg 73%
    20:00 +2°C° 0 mm 1 mps 709 mmHg 77%
    21:00 -1°C° 0 mm 2 mps 709 mmHg 80%
    22:00 -2°C° 0 mm 2 mps 709 mmHg 84%
    23:00 -2°C° 0 mm 2 mps 709 mmHg 84%

    29 April, Monday

    Time Temperature Precipitation Wind Pressure Humidity
    00:00 0°C° 0 mm 1 mps 709 mmHg 84%
    01:00 -1°C° 0 mm 1 mps 709 mmHg 84%
    02:00 -1°C° 0 mm 1 mps 709 mmHg 82%
    03:00 -1°C° 0 mm 1 mps 709 mmHg 80%
    04:00 -1°C° 0 mm 1 mps 709 mmHg 78%
    05:00 -2°C° 0 mm 2 mps 709 mmHg 72%
    06:00 -1°C° 0 mm 2 mps 709 mmHg 67%
    07:00 0°C° 0 mm 3 mps 709 mmHg 61%
    08:00 +1°C° 0.1 mm 3 mps 709 mmHg 58%
    09:00 +3°C° 0.1 mm 2 mps 709 mmHg 55%
    10:00 +4°C° 0.1 mm 2 mps 709 mmHg 52%
    11:00 +4°C° 0.2 mm 3 mps 709 mmHg 49%
    12:00 +4°C° 0.2 mm 3 mps 709 mmHg 46%
    13:00 +5°C° 0.2 mm 4 mps 708 mmHg 42%
    14:00 +5°C° 0 mm 4 mps 708 mmHg 40%
    15:00 +5°C° 0 mm 4 mps 708 mmHg 37%
    16:00 +5°C° 0 mm 4 mps 708 mmHg 34%
    17:00 +4°C° 0 mm 3 mps 708 mmHg 38%
    18:00 +4°C° 0 mm 2 mps 708 mmHg 42%
    19:00 +3°C° 0 mm 1 mps 708 mmHg 46%
    20:00 +3°C° 0 mm 1 mps 708 mmHg 49%
    21:00 +1°C° 0 mm 2 mps 708 mmHg 52%
    22:00 +1°C° 0 mm 2 mps 708 mmHg 54%
    23:00 -1°C° 0 mm 2 mps 708 mmHg 58%

    30 April, Tuesday

    Time Temperature Precipitation Wind Pressure Humidity
    00:00 -1°C° 0 mm 2 mps 707 mmHg 62%
    01:00 -2°C° 0 mm 2 mps 707 mmHg 66%
    02:00 -2°C° 0 mm 2 mps 707 mmHg 67%
    03:00 -2°C° 0 mm 2 mps 707 mmHg 68%
    04:00 0°C° 0 mm 1 mps 707 mmHg 69%
    05:00 -1°C° 0 mm 2 mps 706 mmHg 67%
    06:00 +1°C° 0 mm 2 mps 706 mmHg 65%
    07:00 0°C° 0 mm 3 mps 706 mmHg 63%
    08:00 +2°C° 0 mm 3 mps 706 mmHg 58%
    09:00 +3°C° 0 mm 3 mps 705 mmHg 53%
    10:00 +4°C° 0 mm 3 mps 705 mmHg 49%
    11:00 +5°C° 0.3 mm 4 mps 704 mmHg 49%
    12:00 +5°C° 0.3 mm 4 mps 704 mmHg 49%
    13:00 +5°C° 0.3 mm 4 mps 703 mmHg 49%
    14:00 +6°C° 0 mm 4 mps 703 mmHg 46%
    15:00 +7°C° 0 mm 3 mps 703 mmHg 42%
    16:00 +7°C° 0 mm 2 mps 703 mmHg 39%
    17:00 +6°C° 0 mm 2 mps 703 mmHg 44%
    18:00 +7°C° 0 mm 1 mps 703 mmHg 50%
    19:00 +6°C° 0 mm 1 mps 703 mmHg 56%
    20:00 +5°C° 0 mm 1 mps 703 mmHg 62%
    21:00 +3°C° 0 mm 2 mps 703 mmHg 68%
    22:00 +1°C° 0 mm 3 mps 702 mmHg 74%
    23:00 +1°C° 0.1 mm 3 mps 702 mmHg 74%

    1 May, Wednesday

    Time Temperature Precipitation Wind Pressure Humidity
    00:00 +2°C° 0.1 mm 2 mps 702 mmHg 74%
    01:00 +2°C° 0.1 mm 2 mps 702 mmHg 74%
    02:00 +1°C° 0 mm 2 mps 701 mmHg 74%
    03:00 +1°C° 0 mm 2 mps 701 mmHg 75%
    04:00 -1°C° 0 mm 2 mps 701 mmHg 76%
    05:00 +1°C° 0 mm 2 mps 701 mmHg 71%
    06:00 +2°C° 0 mm 2 mps 701 mmHg 66%
    07:00 +4°C° 0 mm 2 mps 702 mmHg 61%
    08:00 +5°C° 0 mm 2 mps 702 mmHg 56%
    09:00 +7°C° 0 mm 2 mps 702 mmHg 51%
    10:00 +10°C° 0 mm 1 mps 702 mmHg 46%
    11:00 +11°C° 0 mm 1 mps 702 mmHg 43%
    12:00 +12°C° 0 mm 1 mps 702 mmHg 40%
    13:00 +13°C° 0 mm 1 mps 702 mmHg 36%
    14:00 +14°C° 0 mm 2 mps 702 mmHg 35%
    15:00 +14°C° 0 mm 2 mps 702 mmHg 34%
    16:00 +14°C° 0 mm 2 mps 702 mmHg 33%
    17:00 +12°C° 0 mm 2 mps 702 mmHg 38%
    18:00 +10°C° 0 mm 2 mps 702 mmHg 44%
    19:00 +9°C° 0 mm 2 mps 702 mmHg 50%
    20:00 +8°C° 0 mm 2 mps 702 mmHg 53%
    21:00 +7°C° 0 mm 3 mps 702 mmHg 56%
    22:00 +6°C° 0 mm 4 mps 702 mmHg 59%
    23:00 +5°C° 0 mm 4 mps 702 mmHg 60%
    Show more